TimeHST,TemperatureF,Dew PointF,Humidity,Sea Level PressureIn,VisibilityMPH,Wind Direction,Wind SpeedMPH,Gust SpeedMPH,PrecipitationIn,Events,Conditions,WindDirDegrees,DateUTC
12:54 AM,73.9,69.1,85,30.09,10.0,NE,4.6,-,N/A,,Clear,40,2012-10-11 10:54:00
1:54 AM,73.0,69.1,87,30.07,10.0,NE,5.8,-,N/A,,Clear,40,2012-10-11 11:54:00
2:54 AM,73.9,68.0,82,30.06,10.0,NE,5.8,-,N/A,,Clear,50,2012-10-11 12:54:00
3:54 AM,75.0,66.9,76,30.06,10.0,NNE,8.1,-,N/A,,Clear,30,2012-10-11 13:54:00
4:54 AM,73.9,66.0,76,30.07,10.0,East,5.8,-,N/A,,Clear,100,2012-10-11 14:54:00
5:54 AM,72.0,66.0,81,30.09,10.0,NNE,4.6,-,N/A,,Clear,30,2012-10-11 15:54:00
6:54 AM,73.9,66.0,76,30.09,10.0,NNW,8.1,-,N/A,,Clear,330,2012-10-11 16:54:00
7:54 AM,79.0,66.0,64,30.10,10.0,NE,11.5,-,N/A,,Clear,50,2012-10-11 17:54:00
8:54 AM,82.0,64.9,56,30.10,10.0,NE,9.2,18.4,N/A,,Clear,40,2012-10-11 18:54:00
9:54 AM,84.9,64.9,51,30.09,10.0,NE,10.4,19.6,N/A,,Clear,40,2012-10-11 19:54:00
10:54 AM,84.9,66.9,55,30.08,10.0,NNE,15.0,19.6,N/A,,Partly Cloudy,30,2012-10-11 20:54:00
11:54 AM,86.0,68.0,55,30.05,10.0,NNE,12.7,19.6,N/A,,Partly Cloudy,30,2012-10-11 21:54:00
12:54 PM,87.1,68.0,53,30.02,10.0,NNE,11.5,19.6,N/A,,Partly Cloudy,30,2012-10-11 22:54:00
1:54 PM,86.0,68.0,55,30.00,10.0,NNE,12.7,21.9,N/A,,Partly Cloudy,30,2012-10-11 23:54:00
2:54 PM,82.9,66.9,58,29.99,10.0,NNE,15.0,24.2,N/A,,Partly Cloudy,30,2012-10-12 00:54:00
3:54 PM,82.0,68.0,62,30.00,10.0,NE,15.0,26.5,N/A,,Clear,50,2012-10-12 01:54:00
4:54 PM,80.1,66.0,62,30.01,10.0,NE,19.6,31.1,N/A,,Clear,50,2012-10-12 02:54:00
5:54 PM,77.0,68.0,74,30.03,10.0,NNE,17.3,26.5,N/A,,Partly Cloudy,30,2012-10-12 03:54:00
6:54 PM,75.9,66.9,74,30.05,10.0,NNE,15.0,21.9,N/A,,Clear,30,2012-10-12 04:54:00
7:54 PM,75.9,66.9,74,30.09,10.0,NE,11.5,19.6,N/A,,Clear,50,2012-10-12 05:54:00
8:54 PM,75.9,66.0,71,30.11,10.0,NE,8.1,17.3,N/A,,Clear,40,2012-10-12 06:54:00
9:54 PM,75.9,63.0,64,30.12,10.0,NE,12.7,19.6,N/A,,Clear,40,2012-10-12 07:54:00
10:54 PM,75.9,64.0,67,30.11,10.0,NNE,12.7,20.7,N/A,,Clear,20,2012-10-12 08:54:00
11:54 PM,75.0,64.0,69,30.09,10.0,NNE,13.8,27.6,N/A,,Clear,30,2012-10-12 09:54:00